Regional Weather Roundup
Issued by NWS

Home | Current Version | Previous Version | Text Only | Print | Product List | Glossary Off
Versions: 1 2 3 4 5 6 7 8 9 10 11 12 13 14 15 16 17 18 19 20 21 22 23 24 25 26 27 28 29 30 31 32 33 34 35 36 37 38 39 40 41 42 43 44 45 46 47 48 49 50

373
ASUS43 KFSD 240402
RWRSD

WEATHER ROUNDUP FOR SOUTH DAKOTA
NATIONAL WEATHER SERVICE SIOUX FALLS SD
1100 PM CDT MON MAY 23 2016

NOTE: "FAIR" INDICATES FEW OR NO CLOUDS BELOW 12,000 FEET WITH NO
SIGNIFICANT WEATHER AND/OR OBSTRUCTIONS TO VISIBILITY.


SDZ001>005-009-010-012>017-240500-
NORTHWEST AND NORTH CENTRAL SOUTH DAKOTA

CITY           SKY/WX    TMP DP  RH WIND       PRES   REMARKS
BUFFALO          N/A     54  36  50 N14       29.74R
FAITH            N/A     57  40  52 NE14      29.74R
MOBRIDGE       CLEAR     59  51  75 MISG      29.70R
$$

SDZ012>016-024>037-041>051-057-063-072>074-240500-
SOUTHWEST AND SOUTH CENTRAL SOUTH DAKOTA

CITY           SKY/WX    TMP DP  RH WIND       PRES   REMARKS
RAPID CTY ARPT CLEAR     50  31  48 W5        29.78R
PIERRE         PTCLDY    62  47  57 CALM      29.71R
CUSTER         CLOUDY    54  23  30 SW5       29.89R
PHILIP         MOCLDY    66  37  34 SW15      29.73R
PINE RIDGE     CLEAR     57  38  48 S16       29.83R
WINNER         FAIR      63  49  60 SW5       29.77R
$$

SDZ004>011-016>023-039-040-240500-
NORTHEAST SOUTH DAKOTA

CITY           SKY/WX    TMP DP  RH WIND       PRES   REMARKS
ABERDEEN       CLEAR     61  53  75 S8        29.71R
WATERTOWN      CLOUDY    63  55  75 S6        29.76R
BROOKINGS      CLOUDY    64  58  80 S8        29.76S
SISSETON         N/A     63  53  70 SW6       29.71R
$$

SDZ017-020-022-023-036>040-048>070-240500-
SOUTHEAST SOUTH DAKOTA

CITY           SKY/WX    TMP DP  RH WIND       PRES   REMARKS
SIOUX FALLS    CLOUDY    65  62  90 S8        29.77S
HURON          CLEAR     64  57  78 SE9       29.73R
MITCHELL       CLEAR     66  61  84 SE8       29.75R
YANKTON        CLOUDY    66  63  88 S8        29.76R
$$

ABBREVIATIONS USED IN REMARKS
   TC - TEMPERATURE IN CELSIUS
  WCI - WIND CHILL INDEX
   HX - HEAT INDEX
  VSB - VISIBILITY





USA.gov is the U.S. government's official web portal to all federal, state and local government web resources and services.